Waarnemingen

Advertentie
Mijn weer
UFS TW Ems, Duitsland (10004): temperatuur & dauwpunt: 22.05.2017 06:00:00 - 28.05.2017 06:00:00 (CEST)UFS TW Ems, Duitsland (10004): windsnelheid & windstoten: 22.05.2017 06:00:00 - 28.05.2017 06:00:00 (CEST)UFS TW Ems, Duitsland (10004): windrichting: 22.05.2017 06:00:00 - 28.05.2017 06:00:00 (CEST)UFS TW Ems, Duitsland (10004): luchtdruk: 22.05.2017 06:00:00 - 28.05.2017 06:00:00 (CEST)UFS TW Ems, Duitsland (10004): zicht: 22.05.2017 06:00:00 - 28.05.2017 06:00:00 (CEST)UFS TW Ems, Duitsland (10004): Zonneschijnduur: 22.05.2017 06:00:00 - 28.05.2017 06:00:00 (CEST)
Datum & Tijd tt [°C] td [°C] ff [km/u] ff [kn] fx [km/u] fx [kn] dd ppp [hPa] vv [km] sd [min]
28.05.2017 06:00:00 13,1 12,2 25 14 - - ZZW 1016,2 10 0
28.05.2017 05:00:00 13,3 12,4 58 31 - - ZZW 1015,6 10 0
28.05.2017 04:00:00 13,5 12,3 18 10 - - Z 1016,0 10 0
28.05.2017 03:00:00 - - - - - - - - - -
28.05.2017 02:00:00 - - - - - - - - - -
28.05.2017 01:00:00 14,5 12,7 14 8 - - Z 1016,0 10 0
28.05.2017 00:00:00 17,4 13,5 11 6 - - ZW 1015,9 10 0
27.05.2017 23:00:00 16,6 12,3 18 10 - - ZW 1015,8 10 0
27.05.2017 22:00:00 16,3 12,5 29 16 - - ZO 1014,9 10 18
27.05.2017 21:00:00 17,1 12,8 29 16 - - OZO 1015,1 10 60
27.05.2017 20:00:00 16,0 12,6 29 16 - - OZO 1015,2 10 60
27.05.2017 19:00:00 15,8 12,6 29 16 - - OZO 1015,5 10 60
27.05.2017 18:00:00 - - - - - - - - - -
27.05.2017 17:00:00 15,4 12,5 29 16 - - O 1016,5 10 60
27.05.2017 16:00:00 15,1 12,5 29 16 - - O 1017,2 10 60
27.05.2017 15:00:00 14,6 12,6 22 12 - - O 1018,1 9 60
27.05.2017 14:00:00 14,4 12,5 25 14 - - O 1018,3 7 60
27.05.2017 13:00:00 14,2 12,5 25 14 - - O 1018,7 9 60
27.05.2017 12:00:00 13,9 12,3 25 14 - - OZO 1019,4 9 60
27.05.2017 11:00:00 13,9 12,4 22 12 - - OZO 1019,5 8 -
27.05.2017 10:00:00 13,5 12,2 25 14 - - OZO 1019,8 9 60
27.05.2017 09:00:00 12,9 12,1 25 14 - - OZO 1020,3 1,2 60
27.05.2017 08:00:00 - - - - - - - - - -
27.05.2017 07:00:00 - - - - - - - - - -
27.05.2017 06:00:00 11,2 11,2 25 14 - - OZO 1020,4 0,5 0
27.05.2017 05:00:00 11,1 11,0 18 10 - - OZO 1020,7 10 0
27.05.2017 04:00:00 10,1 10,1 25 14 - - O 1020,5 0,2 0
27.05.2017 03:00:00 9,9 10,0 29 16 - - O 1020,7 0,2 0
27.05.2017 02:00:00 10,2 10,2 25 14 - - O 1021,0 0,5 0
27.05.2017 01:00:00 10,1 10,1 25 14 - - O 1021,4 0,3 0
27.05.2017 00:00:00 10,1 10,1 25 14 - - O 1021,8 0,2 0
26.05.2017 23:00:00 10,2 10,2 18 10 - - ONO 1022,3 0,2 0
26.05.2017 22:00:00 10,3 10,3 22 12 - - NO 1022,3 0,1 0
26.05.2017 21:00:00 10,3 10,3 22 12 - - ONO 1022,1 0,2 0
26.05.2017 20:00:00 10,5 10,5 18 10 - - ONO 1022,4 0,1 0
26.05.2017 19:00:00 10,4 10,4 18 10 - - ONO 1022,8 0,2 12
26.05.2017 18:00:00 10,6 10,6 14 8 - - NO 1023,3 0,1 12
26.05.2017 17:00:00 10,5 10,5 14 8 - - ONO 1023,6 0,1 12
26.05.2017 16:00:00 10,8 10,8 11 6 - - ONO 1024,0 0,2 12
26.05.2017 15:00:00 10,5 10,5 11 6 - - ONO 1024,4 0,2 42
26.05.2017 14:00:00 10,2 10,2 - - - - - - - 18
26.05.2017 13:00:00 10,1 10,0 11 6 - - NO 1024,7 0,5 30
26.05.2017 12:00:00 10,1 10,1 11 6 - - NNO 1024,7 0,5 60
26.05.2017 11:00:00 9,8 9,8 14 8 - - NNO 1024,6 0,3 54
26.05.2017 10:00:00 9,7 9,7 11 6 - - NNW 1024,5 0,2 18
26.05.2017 09:00:00 - - - - - - - - - -
26.05.2017 08:00:00 9,7 9,7 7 4 - - N 1024,3 0,2 0
26.05.2017 07:00:00 9,5 9,5 7 4 - - N 1024,3 0,1 0
26.05.2017 06:00:00 9,6 9,6 11 6 - - NNO 1024,2 0,1 0
26.05.2017 05:00:00 9,9 9,9 11 6 - - NNO 1024,3 0,1 0
26.05.2017 04:00:00 10,1 10,1 14 8 - - N 1024,3 0,1 0
26.05.2017 03:00:00 11,1 11,0 11 6 - - NNW 1024,2 0,1 0
26.05.2017 02:00:00 11,9 11,6 11 6 - - NNW 1024,3 9 0
26.05.2017 01:00:00 12,0 11,6 14 8 - - NNW 1024,3 8 0
26.05.2017 00:00:00 12,1 11,6 18 10 - - NW 1024,0 10 0
25.05.2017 23:00:00 12,3 11,7 18 10 - - NW 1024,1 10 0
25.05.2017 22:00:00 12,4 11,8 14 8 - - WNW 1024,1 10 30
25.05.2017 21:00:00 12,7 11,8 18 10 - - WNW 1024,1 10 60
25.05.2017 20:00:00 - - - - - - - - - -
25.05.2017 19:00:00 12,9 11,6 18 10 - - W 1024,5 10 60
25.05.2017 18:00:00 12,8 11,4 18 10 - - W 1024,9 10 60
25.05.2017 17:00:00 12,6 11,3 18 10 - - W 1025,2 10 60
25.05.2017 16:00:00 12,6 11,2 14 8 - - W 1025,3 10 60
25.05.2017 15:00:00 12,5 11,0 14 8 - - W 1025,4 10 36
25.05.2017 14:00:00 - - - - - - - - - -
25.05.2017 13:00:00 12,5 10,7 14 8 - - W 1025,4 10 42
25.05.2017 12:00:00 12,4 10,6 18 10 - - WNW 1025,1 10 30
25.05.2017 11:00:00 12,1 10,7 22 12 - - WNW 1024,7 10 18
25.05.2017 10:00:00 11,8 10,7 22 12 - - WNW 1024,8 10 42
25.05.2017 09:00:00 11,7 10,7 18 10 - - WNW 1024,5 10 6
25.05.2017 08:00:00 11,6 10,6 18 10 - - WNW 1024,4 10 24
25.05.2017 07:00:00 11,7 10,5 14 8 - - W 1024,1 10 60
25.05.2017 06:00:00 11,6 10,4 18 10 - - WNW 1024,1 10 6
25.05.2017 05:00:00 11,3 10,5 18 10 - - WNW 1023,9 10 0
25.05.2017 04:00:00 10,9 10,8 14 8 - - WNW 1024,2 10 0
25.05.2017 03:00:00 10,1 10,0 14 8 - - WNW 1024,4 0,3 0
25.05.2017 02:00:00 9,9 9,8 18 10 - - NW 1024,1 0,7 0
25.05.2017 01:00:00 9,8 9,6 18 10 - - NW 1024,3 8 0
25.05.2017 00:00:00 9,6 9,5 22 12 - - NW 1024,1 0,8 0
24.05.2017 23:00:00 10,0 9,7 22 12 - - NW 1023,8 1,4 0
24.05.2017 22:00:00 10,9 10,2 22 12 - - NW 1023,6 10 0
24.05.2017 21:00:00 11,5 10,8 18 10 - - NW 1023,4 10 54
24.05.2017 20:00:00 11,6 10,7 22 12 - - NW 1023,0 10 60
24.05.2017 19:00:00 11,7 10,8 18 10 - - NW 1023,0 10 54
24.05.2017 18:00:00 11,9 10,8 22 12 - - WNW 1022,9 8 42
24.05.2017 17:00:00 12,4 11,0 18 10 - - WNW 1022,9 10 0
24.05.2017 16:00:00 12,0 10,8 18 10 - - W 1022,9 10 0
24.05.2017 15:00:00 12,1 10,7 18 10 - - ZW 1022,6 10 0
24.05.2017 14:00:00 12,0 10,3 18 10 - - WZW 1022,7 10 0
24.05.2017 13:00:00 11,9 10,1 18 10 - - ZW 1022,8 10 0
24.05.2017 12:00:00 - - - - - - - - - -
24.05.2017 11:00:00 11,8 9,5 14 8 - - WZW 1022,6 10 0
24.05.2017 10:00:00 11,7 9,6 11 6 - - WZW 1022,5 10 6
24.05.2017 09:00:00 11,7 9,4 11 6 - - W 1022,3 10 12
24.05.2017 08:00:00 11,6 9,4 14 8 - - W 1022,2 10 12
24.05.2017 07:00:00 11,5 9,4 18 10 - - W 1021,9 10 18
24.05.2017 06:00:00 11,4 9,5 18 10 - - W 1021,7 10 12
24.05.2017 05:00:00 11,2 9,2 25 14 - - WNW 1021,7 10 0
24.05.2017 04:00:00 11,2 9,4 25 14 - - NW 1021,7 10 0
24.05.2017 03:00:00 11,3 9,0 25 14 - - WNW 1021,4 10 0
24.05.2017 02:00:00 11,2 9,1 25 14 - - WNW 1021,3 10 0
24.05.2017 01:00:00 11,2 9,4 25 14 - - WNW 1021,3 10 0
24.05.2017 00:00:00 11,2 9,8 25 14 - - W 1021,4 10 0
23.05.2017 23:00:00 11,3 9,7 25 14 - - W 1021,2 10 0
23.05.2017 22:00:00 11,3 9,5 25 14 - - W 1020,6 10 0
23.05.2017 21:00:00 11,3 9,6 29 16 - - W 1019,9 10 18
23.05.2017 20:00:00 11,5 9,5 29 16 - - WNW 1019,6 10 60
23.05.2017 19:00:00 11,7 9,1 29 16 - - WNW 1019,3 10 60
23.05.2017 18:00:00 11,5 9,4 32 18 - - WNW 1019,0 10 60
23.05.2017 17:00:00 11,5 9,4 32 18 - - WNW 1018,7 9 60
23.05.2017 16:00:00 11,5 9,5 36 19 47 25 WNW 1018,4 10 60
23.05.2017 15:00:00 11,8 10,1 36 19 47 25 WNW 1017,5 10 60
23.05.2017 14:00:00 11,9 10,2 32 18 - - WNW 1016,7 10 48
23.05.2017 13:00:00 12,1 10,7 32 18 - - WNW 1015,9 10 24
23.05.2017 12:00:00 12,5 11,0 22 12 - - W 1015,0 8 48
23.05.2017 11:00:00 12,9 10,8 25 14 - - W 1014,1 9 60
23.05.2017 10:00:00 13,6 10,7 18 10 - - ZW 1013,5 10 48
23.05.2017 09:00:00 13,8 10,8 14 8 - - W 1013,7 10 30
23.05.2017 08:00:00 13,2 11,2 14 8 - - WZW 1013,7 9 42
23.05.2017 07:00:00 13,2 11,1 18 10 - - ZZW 1013,4 10 18
23.05.2017 06:00:00 13,9 11,2 22 12 - - Z 1013,4 10 0
23.05.2017 05:00:00 13,8 11,0 22 12 - - ZZO 1013,2 10 0
23.05.2017 04:00:00 14,5 10,3 22 12 - - ZO 1013,5 10 0
23.05.2017 03:00:00 13,7 11,1 18 10 - - ZO 1014,3 10 0
23.05.2017 02:00:00 13,5 11,3 25 14 - - OZO 1014,5 10 0
23.05.2017 01:00:00 13,5 10,6 22 12 - - OZO 1015,3 10 0
23.05.2017 00:00:00 12,9 10,6 18 10 - - O 1015,7 10 0
22.05.2017 23:00:00 13,0 10,8 18 10 - - O 1016,4 10 0
22.05.2017 22:00:00 13,1 10,5 18 10 - - O 1016,7 10 0
22.05.2017 21:00:00 13,6 10,2 22 12 - - O 1016,9 10 0
22.05.2017 20:00:00 13,9 10,4 25 14 - - O 1017,1 10 12
22.05.2017 19:00:00 - - - - - - - - - -
22.05.2017 18:00:00 - - - - - - - - - -
22.05.2017 17:00:00 - - - - - - - - - -
22.05.2017 16:00:00 - - - - - - - - - -
22.05.2017 15:00:00 - - - - - - - - - -
22.05.2017 14:00:00 - - - - - - - - - -
22.05.2017 13:00:00 - - - - - - - - - -
22.05.2017 12:00:00 - - - - - - - - - -
22.05.2017 11:00:00 - - - - - - - - - -
22.05.2017 10:00:00 - - - - - - - - - -
22.05.2017 09:00:00 - - - - - - - - - -
22.05.2017 08:00:00 - - - - - - - - - -
22.05.2017 07:00:00 - - - - - - - - - -
22.05.2017 06:00:00 - - - - - - - - - -

tt = temperatuur
td = dauwpunt
ff = windsnelheid
fx = windstoten
dd = windrichting
ppp = luchtdruk
vv = zicht
sd = Zonneschijnduur

Weerstations in de omgeving